TimeEST,TemperatureF,Dew PointF,Humidity,Sea Level PressureIn,VisibilityMPH,Wind Direction,Wind SpeedMPH,Gust SpeedMPH,PrecipitationIn,Events,Conditions,WindDirDegrees,DateUTC
12:15 AM,44.6,26.6,49,30.07,10.0,South,4.6,-,N/A,,Clear,190,2013-03-05 05:15:00
12:35 AM,44.6,26.6,49,30.08,10.0,SSW,4.6,-,N/A,,Clear,200,2013-03-05 05:35:00
12:55 AM,42.8,26.6,53,30.08,10.0,SSW,3.5,-,N/A,,Clear,200,2013-03-05 05:55:00
1:35 AM,42.8,26.6,53,30.09,10.0,SW,3.5,-,N/A,,Clear,220,2013-03-05 06:35:00
1:55 AM,42.8,28.4,57,30.08,10.0,SW,3.5,-,N/A,,Clear,230,2013-03-05 06:55:00
2:35 AM,42.8,28.4,57,30.07,10.0,SW,4.6,-,N/A,,Clear,220,2013-03-05 07:35:00
2:55 AM,41.0,30.2,65,30.06,10.0,SSW,3.5,-,N/A,,Clear,210,2013-03-05 07:55:00
3:15 AM,41.0,30.2,65,30.06,10.0,SSW,3.5,-,N/A,,Clear,210,2013-03-05 08:15:00
3:35 AM,41.0,30.2,65,30.06,10.0,SSW,3.5,-,N/A,,Clear,200,2013-03-05 08:35:00
3:55 AM,41.0,30.2,65,30.04,10.0,SSE,3.5,-,N/A,,Clear,160,2013-03-05 08:55:00
4:15 AM,41.0,32.0,70,30.04,10.0,South,4.6,-,N/A,,Clear,170,2013-03-05 09:15:00
4:35 AM,41.0,30.2,65,30.04,10.0,South,3.5,-,N/A,,Scattered Clouds,170,2013-03-05 09:35:00
4:55 AM,42.8,32.0,66,30.04,10.0,South,4.6,-,N/A,,Mostly Cloudy,170,2013-03-05 09:55:00
5:35 AM,42.8,32.0,66,30.04,10.0,South,3.5,-,N/A,,Overcast,190,2013-03-05 10:35:00
5:55 AM,42.8,32.0,66,30.05,10.0,SSW,3.5,-,N/A,,Overcast,200,2013-03-05 10:55:00
6:15 AM,42.8,32.0,66,30.04,10.0,Calm,Calm,-,N/A,,Overcast,0,2013-03-05 11:15:00
6:35 AM,42.8,32.0,66,30.04,10.0,SSW,4.6,-,N/A,,Overcast,200,2013-03-05 11:35:00
6:55 AM,42.8,33.8,70,30.04,10.0,West,3.5,-,N/A,Rain,Light Rain,270,2013-03-05 11:55:00
7:55 AM,41.0,37.4,87,30.03,10.0,SSW,5.8,-,N/A,,Overcast,200,2013-03-05 12:55:00
8:15 AM,41.0,37.4,87,30.03,10.0,SSW,5.8,-,N/A,,Overcast,200,2013-03-05 13:15:00
8:35 AM,42.8,37.4,81,30.03,10.0,South,5.8,-,N/A,,Overcast,190,2013-03-05 13:35:00
9:15 AM,42.8,37.4,81,30.02,10.0,SSW,4.6,-,N/A,,Overcast,200,2013-03-05 14:15:00
9:35 AM,42.8,37.4,81,30.02,10.0,South,8.1,-,N/A,,Overcast,180,2013-03-05 14:35:00
9:55 AM,44.6,39.2,81,30.01,10.0,South,8.1,-,N/A,,Overcast,190,2013-03-05 14:55:00
10:15 AM,44.6,39.2,81,30.00,10.0,SSW,5.8,-,N/A,,Overcast,200,2013-03-05 15:15:00
10:35 AM,44.6,41.0,87,30.00,10.0,SSW,9.2,-,N/A,,Overcast,200,2013-03-05 15:35:00
10:55 AM,46.4,41.0,81,29.98,10.0,South,6.9,-,N/A,,Overcast,190,2013-03-05 15:55:00
11:15 AM,48.2,41.0,76,29.98,10.0,SSW,5.8,-,N/A,,Overcast,200,2013-03-05 16:15:00
11:55 AM,53.6,44.6,72,29.95,10.0,SW,9.2,17.3,N/A,,Mostly Cloudy,230,2013-03-05 16:55:00
12:15 PM,55.4,44.6,67,29.94,10.0,SW,6.9,-,N/A,,Scattered Clouds,230,2013-03-05 17:15:00
12:35 PM,59.0,44.6,59,29.93,10.0,WSW,5.8,-,N/A,,Clear,240,2013-03-05 17:35:00
12:55 PM,60.8,46.4,59,29.90,10.0,Calm,Calm,-,N/A,,Clear,0,2013-03-05 17:55:00
1:15 PM,62.6,46.4,55,29.88,10.0,SSW,8.1,-,N/A,,Scattered Clouds,200,2013-03-05 18:15:00
1:35 PM,60.8,46.4,59,29.87,10.0,SSW,4.6,-,N/A,,Mostly Cloudy,210,2013-03-05 18:35:00
1:55 PM,60.8,46.4,59,29.85,10.0,Calm,Calm,-,N/A,,Overcast,0,2013-03-05 18:55:00
2:15 PM,60.8,46.4,59,29.84,10.0,Calm,Calm,-,N/A,,Overcast,0,2013-03-05 19:15:00
2:35 PM,62.6,48.2,59,29.83,10.0,SSW,5.8,-,N/A,,Overcast,210,2013-03-05 19:35:00
2:55 PM,62.6,48.2,59,29.81,10.0,SW,10.4,19.6,N/A,,Overcast,220,2013-03-05 19:55:00
3:15 PM,64.4,48.2,56,29.79,10.0,SSW,9.2,-,N/A,,Overcast,200,2013-03-05 20:15:00
3:35 PM,64.4,50.0,59,29.77,10.0,SSW,9.2,-,N/A,,Overcast,200,2013-03-05 20:35:00
3:55 PM,66.2,50.0,56,29.75,10.0,SSW,10.4,17.3,N/A,,Overcast,210,2013-03-05 20:55:00
4:15 PM,66.2,50.0,56,29.74,10.0,SSW,16.1,25.3,N/A,,Overcast,200,2013-03-05 21:15:00
4:35 PM,66.2,48.2,52,29.74,10.0,SSW,17.3,21.9,N/A,,Overcast,210,2013-03-05 21:35:00
4:55 PM,64.4,50.0,59,29.72,10.0,SSW,15.0,20.7,N/A,,Overcast,200,2013-03-05 21:55:00
5:15 PM,64.4,50.0,59,29.71,10.0,South,19.6,32.2,N/A,,Light Drizzle,190,2013-03-05 22:15:00
5:35 PM,62.6,51.8,68,29.69,10.0,SSW,17.3,31.1,N/A,,Mostly Cloudy,200,2013-03-05 22:35:00
5:55 PM,60.8,51.8,72,29.68,10.0,South,17.3,29.9,N/A,Rain,Light Rain,180,2013-03-05 22:55:00
6:15 PM,60.8,51.8,72,29.67,7.0,South,17.3,26.5,0.01,Rain,Heavy Rain,190,2013-03-05 23:15:00
6:55 PM,57.2,57.2,100,29.66,7.0,South,15.0,-,0.10,Rain-Thunderstorm,Heavy Thunderstorms and Rain,190,2013-03-05 23:55:00
7:15 PM,55.4,55.4,100,29.70,10.0,SW,21.9,32.2,N/A,Rain-Thunderstorm,Light Thunderstorms and Rain,220,2013-03-06 00:15:00
7:35 PM,57.2,57.2,100,29.69,10.0,WSW,11.5,18.4,N/A,,Mostly Cloudy,240,2013-03-06 00:35:00
7:55 PM,55.4,55.4,100,29.68,10.0,WSW,4.6,19.6,N/A,,Scattered Clouds,250,2013-03-06 00:55:00
8:15 PM,55.4,55.4,100,29.68,10.0,WSW,6.9,-,N/A,,Scattered Clouds,250,2013-03-06 01:15:00
8:35 PM,55.4,55.4,100,29.68,10.0,WSW,6.9,-,N/A,,Mostly Cloudy,240,2013-03-06 01:35:00
8:55 PM,55.4,55.4,100,29.68,10.0,SW,12.7,20.7,N/A,,Mostly Cloudy,230,2013-03-06 01:55:00
9:15 PM,53.6,53.6,100,29.68,10.0,WSW,11.5,19.6,N/A,,Mostly Cloudy,250,2013-03-06 02:15:00
9:35 PM,53.6,51.8,94,29.69,10.0,WSW,10.4,26.5,N/A,,Scattered Clouds,250,2013-03-06 02:35:00
9:55 PM,51.8,46.4,82,29.70,10.0,West,12.7,19.6,N/A,,Clear,260,2013-03-06 02:55:00
10:15 PM,51.8,42.8,71,29.70,10.0,WSW,13.8,33.4,N/A,,Clear,250,2013-03-06 03:15:00
10:35 PM,50.0,41.0,71,29.70,10.0,West,13.8,29.9,N/A,,Clear,260,2013-03-06 03:35:00
10:55 PM,50.0,37.4,62,29.70,10.0,West,11.5,26.5,N/A,,Clear,260,2013-03-06 03:55:00
11:15 PM,48.2,37.4,66,29.70,10.0,West,15.0,26.5,N/A,,Clear,270,2013-03-06 04:15:00
11:35 PM,46.4,33.8,62,29.71,10.0,West,11.5,25.3,N/A,,Clear,270,2013-03-06 04:35:00
11:55 PM,44.6,33.8,66,29.71,10.0,West,12.7,28.8,N/A,,Clear,270,2013-03-06 04:55:00